Weather History for Dallas/Ft Worth, TX

Change the Weather History Date:

Sunday, December 30, 2012

  Actual Average Record
Temperature  
Mean Temperature 38 °F 45 °F  
Max Temperature 49 °F 56 °F 90 °F (1951)
Min Temperature 27 °F 35 °F 7 °F (1983)
Degree Days  
Heating Degree Days 27 20  
Month to date heating degree days 431 539  
Since 1 July heating degree days 719 893  
Cooling Degree Days 0 0  
Month to date cooling degree days 28 0  
Year to date cooling degree days 3351 2752  
Moisture  
Dew Point 23 °F    
Average Humidity 55    
Maximum Humidity 78    
Minimum Humidity 31    
Precipitation  
Precipitation T in 0.07 in 1.25 in (1933)
Month to date precipitation 1.76 2.48  
Year to date precipitation 31.07 36.07  
Snow  
Snow 0.00 in 0.00 in 0.30 in (1958)
Month to date snowfall 0.5 0.3  
Since 1 July snowfall 0.5 0.3  
Snow Depth 0.00 in    
Sea Level Pressure  
Sea Level Pressure 30.35 in    
Wind  
Wind Speed 9 mph (SSE)    
Max Wind Speed 20 mph    
Max Gust Speed 23 mph    
Visibility 10 miles    
Events Rain    
T = Trace of Precipitation, MM = Missing Value Source: NWS Daily Summary

Daily Weather History Graph

Daily Weather History Graph

Search for Another Location

Airport:

Trip Planner

Search our weather history database for the weather conditions in past years. The results will help you decide how hot, cold, wet, or windy it might be!

Date:

Astronomy

Dec. 30, 2012 Rise Set
Actual Time 7:30 AM CST 5:31 PM CST
Civil Twilight 7:03 AM CST 5:58 PM CST
Nautical Twilight 6:32 AM CST 6:29 PM CST
Astronomical Twilight 6:02 AM CST 6:59 PM CST
Moon 7:55 PM CST (12/30) 8:47 AM CST (12/30)
Length of Visible Light 10h 55m
Length of Day
10h 01m
Waning Gibbous, 95% of the Moon is Illuminated
Dec 30
Waning Gibbous
Jan 4
Last Quarter
Jan 11
New
Jan 18
First Quarter
Jan 26
Full

Hourly Weather History & Observations

Time (CST) Temp. Windchill Dew Point Humidity Pressure Visibility Wind Dir Wind Speed Gust Speed Precip Events Conditions
12:53 AM 30.9 °F 27.5 °F 23.0 °F 72% 30.43 in 10.0 mi SSW 3.5 mph - N/A   Scattered Clouds
1:53 AM 30.0 °F 26.5 °F 23.0 °F 75% 30.43 in 10.0 mi South 3.5 mph - N/A   Scattered Clouds
2:53 AM 28.9 °F - 23.0 °F 78% 30.44 in 10.0 mi Calm Calm - N/A   Scattered Clouds
3:53 AM 30.9 °F - 24.1 °F 76% 30.42 in 10.0 mi Calm Calm - N/A   Scattered Clouds
4:53 AM 30.0 °F 26.5 °F 23.0 °F 75% 30.40 in 10.0 mi SSW 3.5 mph - N/A   Mostly Cloudy
5:53 AM 28.9 °F 25.2 °F 23.0 °F 78% 30.41 in 10.0 mi SSE 3.5 mph - N/A   Mostly Cloudy
6:53 AM 28.9 °F - 21.9 °F 75% 30.43 in 10.0 mi Calm Calm - N/A   Mostly Cloudy
7:53 AM 30.0 °F 25.2 °F 23.0 °F 75% 30.42 in 10.0 mi ESE 4.6 mph - N/A   Overcast
8:53 AM 37.9 °F 34.4 °F 27.0 °F 65% 30.45 in 10.0 mi SE 4.6 mph - N/A   Overcast
9:53 AM 41.0 °F 34.3 °F 24.1 °F 51% 30.44 in 10.0 mi SSE 11.5 mph - N/A   Overcast
10:53 AM 44.1 °F 36.8 °F 19.9 °F 38% 30.43 in 10.0 mi SSE 16.1 mph - N/A   Overcast
11:53 AM 44.1 °F 37.7 °F 19.0 °F 37% 30.40 in 10.0 mi SSE 12.7 mph - N/A   Overcast
12:53 PM 46.0 °F 40.2 °F 19.9 °F 35% 30.36 in 10.0 mi SSE 12.7 mph - N/A   Overcast
1:53 PM 46.9 °F - 19.9 °F 34% 30.33 in 10.0 mi South 9.2 mph 18.4 mph N/A   Overcast
2:53 PM 48.0 °F - 19.0 °F 32% 30.30 in 10.0 mi South 12.7 mph - N/A   Overcast
3:53 PM 48.0 °F - 21.9 °F 36% 30.28 in 10.0 mi SE 13.8 mph - N/A   Overcast
4:53 PM 46.0 °F 40.2 °F 19.9 °F 35% 30.27 in 10.0 mi SSE 12.7 mph - N/A   Overcast
5:53 PM 44.1 °F 36.5 °F 25.0 °F 47% 30.26 in 10.0 mi SSE 17.3 mph - 0.00 in Rain Light Rain
6:53 PM 44.1 °F 37.7 °F 23.0 °F 43% 30.24 in 10.0 mi SE 12.7 mph - 0.00 in   Overcast
7:53 PM 44.1 °F 37.1 °F 24.1 °F 45% 30.25 in 10.0 mi SE 15.0 mph - N/A   Overcast
8:53 PM 43.0 °F 36.8 °F 24.1 °F 47% 30.24 in 10.0 mi SSE 11.5 mph - 0.00 in Rain Light Rain
9:53 PM 43.0 °F 37.7 °F 24.1 °F 47% 30.24 in 10.0 mi SSE 9.2 mph - 0.00 in   Overcast
10:53 PM 43.0 °F 36.8 °F 25.0 °F 49% 30.24 in 10.0 mi SSE 11.5 mph - N/A   Overcast
11:53 PM 43.0 °F 36.8 °F 25.0 °F 49% 30.22 in 10.0 mi SSE 11.5 mph - N/A   Overcast